PBO Station Position Time Series. Reference Frame : NAM14
Format Version,1.1.0
4-character ID,HRST
Station name,Hearst
Begin Date, 2003-03-22
End Date, 2019-10-07
Release Date, 2019-10-08
Reference position, 49.6674453465 North Latitude, -83.5110466046 East Longitude, 228.41425 meters elevation,
Date, North (mm), East (mm), Vertical (mm), North Std. Deviation (mm), East Std. Deviation (mm),              Vertical Std. Deviation (mm), Quality,
2003-03-22,0.00, 0.00, 0.00, 2.42, 1.70, 7.74, repro,
2003-03-23,0.02, 0.26, 5.52, 2.38, 1.70, 7.70, repro,
2003-04-08,-1.97, -1.26, -13.77, 2.33, 1.67, 7.48, repro,
2003-04-09,-3.10, -0.74, -1.42, 2.48, 1.78, 8.05, repro,
2003-04-10,-2.34, -1.50, -7.37, 2.43, 1.76, 7.94, repro,
2003-04-11,-0.00, -1.96, -2.04, 2.35, 1.69, 7.59, repro,
2003-04-12,-1.09, -0.97, -7.04, 2.33, 1.68, 7.55, repro,
2003-04-13,-1.02, -1.40, -5.47, 2.27, 1.65, 7.33, repro,
2003-04-14,-1.22, -1.33, 6.80, 2.26, 1.65, 7.35, repro,
2003-04-15,0.15, -1.01, -0.59, 2.29, 1.68, 7.53, repro,
2003-04-16,-0.19, -0.69, -8.50, 2.28, 1.69, 7.48, repro,
2003-04-17,-0.33, -0.47, -7.30, 2.39, 1.73, 7.82, repro,
2003-04-18,-1.45, -0.80, -1.59, 2.32, 1.68, 7.51, repro,
2003-04-21,0.09, -1.00, 2.17, 2.57, 1.96, 8.43, repro,
2003-04-22,-1.19, -0.94, -0.83, 2.32, 1.70, 7.47, repro,
2003-04-23,-1.02, -0.51, -4.30, 2.30, 1.66, 7.44, repro,
2003-04-24,0.38, -1.07, -5.92, 2.44, 1.78, 8.04, repro,
2003-04-27,0.02, -0.43, -1.63, 2.22, 1.65, 7.24, repro,
2003-04-28,-0.17, 0.16, -1.52, 2.40, 1.73, 7.79, repro,
2003-04-29,-0.73, -1.83, 0.16, 2.44, 1.77, 7.87, repro,
2003-05-02,-0.59, -1.11, -4.77, 2.30, 1.70, 7.48, repro,
2003-05-03,0.59, -1.35, -7.76, 2.35, 1.72, 7.54, repro,
2003-05-04,0.71, 0.40, -3.23, 2.27, 1.64, 7.34, repro,
2003-05-05,0.45, -0.19, -3.59, 2.26, 1.64, 7.30, repro,
2003-05-06,-0.73, -0.17, -2.56, 2.26, 1.63, 7.28, repro,
2003-05-08,-0.72, -0.55, -8.40, 2.34, 1.71, 7.54, repro,
2003-05-10,1.45, 0.10, 4.70, 3.20, 2.24, 10.22, repro,
2003-05-11,1.95, -0.66, 4.96, 2.29, 1.65, 7.36, repro,
2003-05-14,-0.13, 0.39, 3.91, 2.38, 1.72, 7.65, repro,
2003-05-16,1.42, 1.34, -2.41, 2.28, 1.64, 7.39, repro,
2003-05-17,0.82, 0.38, -5.70, 2.36, 1.70, 7.66, repro,
2003-05-19,0.01, 0.60, -3.74, 2.28, 1.67, 7.53, repro,
2003-05-20,-0.83, -0.44, -6.71, 2.32, 1.68, 7.47, repro,
2003-05-22,-1.02, 2.08, -4.74, 2.44, 1.76, 7.87, repro,
2003-05-23,-0.07, -0.49, -10.81, 2.33, 1.69, 7.69, repro,
2003-05-24,-1.58, 0.19, -4.62, 2.27, 1.66, 7.49, repro,
2003-05-25,-0.40, 0.02, 3.99, 2.26, 1.64, 7.32, repro,
2003-05-26,0.15, -1.21, -3.03, 2.24, 1.63, 7.31, repro,
2003-05-27,0.33, -0.36, -5.48, 2.37, 1.71, 7.75, repro,
2003-05-28,0.69, -0.33, -1.95, 2.48, 1.75, 7.87, repro,
2003-05-30,0.21, -0.12, 9.65, 2.44, 1.76, 8.07, repro,
2003-06-02,-0.89, -0.06, 7.26, 2.70, 1.99, 8.86, repro,
2003-06-03,0.29, -0.12, 0.55, 2.31, 1.70, 7.59, repro,
2003-06-04,-0.90, -0.87, 3.59, 2.32, 1.70, 7.63, repro,
2003-06-06,0.87, 0.81, -1.48, 2.33, 1.70, 7.63, repro,
2003-06-07,0.09, -0.33, 1.71, 2.25, 1.67, 7.49, repro,
2003-06-08,0.53, -0.14, 4.80, 2.36, 1.74, 7.82, repro,
2003-06-09,1.23, -0.37, 6.19, 2.34, 1.71, 7.60, repro,
2003-06-10,-0.82, 0.36, 12.02, 2.26, 1.64, 7.38, repro,
2003-06-11,-0.09, -0.14, 1.30, 2.22, 1.63, 7.24, repro,
2003-06-12,0.92, 0.56, -2.46, 2.22, 1.64, 7.32, repro,
2003-06-13,-0.07, -0.70, -0.99, 2.34, 1.73, 7.64, repro,
2003-06-14,-0.15, -0.73, -4.95, 2.28, 1.66, 7.44, repro,
2003-06-15,-2.41, -1.51, 0.84, 2.23, 1.63, 7.26, repro,
2003-06-16,-1.39, -0.06, -3.69, 2.32, 1.68, 7.67, repro,
2003-06-17,-2.44, -1.44, 1.21, 2.68, 1.93, 8.83, repro,
2003-06-19,-2.63, -0.26, 2.67, 2.28, 1.66, 7.50, repro,
2003-06-20,-2.12, 0.13, 4.28, 2.20, 1.62, 7.20, repro,
2003-06-21,-2.32, -0.14, 4.79, 2.32, 1.68, 7.61, repro,
2003-06-25,-1.90, 0.84, 16.11, 2.29, 1.71, 7.63, repro,
2003-06-26,-0.76, -0.37, 9.74, 2.42, 1.74, 7.83, repro,
2003-06-27,-0.03, 0.06, 10.42, 2.34, 1.67, 7.61, repro,
2003-07-02,-1.28, 0.17, 7.45, 2.26, 1.64, 7.36, repro,
2003-07-04,0.31, 0.65, 10.36, 2.38, 1.69, 7.64, repro,
2003-07-07,-1.22, -0.35, 14.34, 2.38, 1.75, 7.88, repro,
2003-07-08,-0.39, 0.60, 12.32, 2.44, 1.75, 7.75, repro,
2003-07-11,-0.06, 0.01, 13.29, 2.52, 1.86, 8.54, repro,
2003-07-12,-1.36, 0.35, 10.93, 2.60, 1.91, 8.36, repro,
2003-07-13,-1.33, 0.10, 10.78, 2.39, 1.69, 7.62, repro,
2003-07-14,-0.39, 1.84, 5.07, 2.49, 1.77, 8.09, repro,
2003-07-15,-1.29, 0.99, 17.86, 2.47, 1.76, 7.94, repro,
2003-07-16,-0.80, 0.51, 13.43, 2.74, 2.01, 8.94, repro,
2003-07-17,-3.10, -0.46, 19.35, 2.37, 1.78, 8.13, repro,
2003-07-18,-0.25, 0.30, 12.24, 2.30, 1.69, 7.57, repro,
2003-07-19,-0.60, -0.56, 11.87, 2.40, 1.71, 7.75, repro,
2003-07-20,-0.39, 0.23, 11.65, 2.32, 1.67, 7.60, repro,
2003-07-21,-0.70, 0.31, 11.83, 2.34, 1.72, 7.66, repro,
2004-03-15,1.37, -0.79, -7.55, 2.44, 1.76, 8.13, repro,
2004-03-18,1.01, 0.21, -8.06, 2.48, 1.81, 8.12, repro,
2004-03-19,0.05, 0.42, -7.48, 2.51, 1.80, 8.12, repro,
2004-03-20,0.42, -0.46, -14.01, 2.43, 1.76, 8.05, repro,
2004-03-21,2.19, -0.12, -18.82, 2.54, 1.84, 8.31, repro,
2004-03-22,-0.61, -0.15, -11.15, 2.35, 1.70, 7.63, repro,
2004-03-25,-1.07, 0.84, -6.62, 2.37, 1.70, 7.71, repro,
2004-03-26,0.06, 0.53, -10.84, 2.47, 1.79, 7.97, repro,
2004-03-27,-1.12, 0.34, -8.55, 2.52, 1.82, 8.23, repro,
2004-03-28,-1.95, 1.89, -3.47, 2.47, 1.77, 8.10, repro,
2004-03-29,-2.27, -0.18, -1.22, 2.57, 1.81, 8.15, repro,
2004-03-30,-0.44, 0.71, -5.92, 2.37, 1.67, 7.62, repro,
2004-03-31,-0.63, 1.30, -6.14, 2.32, 1.63, 7.45, repro,
2004-04-01,-0.99, 0.44, -1.77, 2.35, 1.68, 7.73, repro,
2004-04-02,-0.32, -0.07, -1.11, 2.33, 1.66, 7.58, repro,
2004-04-03,-1.22, -0.19, 1.69, 2.47, 1.75, 7.97, repro,
2004-04-04,-0.90, 0.15, -4.63, 2.40, 1.69, 7.77, repro,
2004-04-05,-1.75, 0.61, -1.77, 2.36, 1.66, 7.62, repro,
2004-04-06,0.11, 0.63, -7.05, 2.32, 1.65, 7.59, repro,
2004-04-07,0.86, -0.24, -2.10, 2.31, 1.65, 7.59, repro,
2004-04-08,0.68, -0.74, -0.12, 2.26, 1.60, 7.40, repro,
2004-04-09,1.56, -0.60, -7.62, 2.26, 1.61, 7.43, repro,
2004-04-10,0.63, -0.02, -6.94, 2.25, 1.60, 7.39, repro,
2004-04-11,-0.56, -0.19, -6.55, 2.26, 1.61, 7.43, repro,
2004-04-12,-0.65, -0.01, -7.47, 2.26, 1.60, 7.39, repro,
2004-04-13,-0.51, 0.87, -5.45, 2.29, 1.66, 7.53, repro,
2004-04-14,0.71, 0.03, -2.76, 2.27, 1.65, 7.49, repro,
2004-04-15,0.58, -0.07, -8.04, 2.25, 1.60, 7.40, repro,
2004-04-16,-1.13, 0.51, -3.56, 2.25, 1.60, 7.37, repro,
2004-04-17,1.53, -0.30, -6.89, 2.27, 1.60, 7.42, repro,
2004-04-18,2.43, 0.46, -8.48, 2.27, 1.61, 7.42, repro,
2004-04-19,1.81, -0.34, -5.99, 2.26, 1.61, 7.43, repro,
2004-04-20,1.35, -0.14, -3.11, 2.27, 1.61, 7.40, repro,
2004-04-21,2.18, -0.83, 7.60, 2.48, 1.82, 8.27, repro,
2004-04-22,2.32, -5.30, -17.26, 2.35, 1.68, 7.79, repro,
2004-04-23,2.41, 1.53, -11.06, 2.31, 1.62, 7.52, repro,
2004-04-24,0.12, 0.53, -7.39, 2.27, 1.60, 7.41, repro,
2004-04-25,1.70, 0.15, -5.85, 2.31, 1.62, 7.49, repro,
2004-04-26,0.13, 0.11, -10.83, 2.27, 1.62, 7.42, repro,
2004-04-27,3.23, 0.25, 1.10, 2.34, 1.66, 7.71, repro,
2004-04-28,3.26, 2.12, -2.10, 2.35, 1.67, 7.74, repro,
2004-04-29,1.59, 0.50, 8.42, 2.40, 1.69, 7.81, repro,
2004-05-01,1.86, 1.03, -6.43, 2.48, 1.73, 7.88, repro,
2004-05-02,2.86, 0.64, -10.82, 2.46, 1.73, 7.81, repro,
2004-05-03,2.74, 0.69, -13.59, 2.55, 1.74, 8.04, repro,
2004-05-04,2.22, 0.99, -2.31, 2.45, 1.71, 7.99, repro,
2004-05-13,2.97, -0.03, -8.06, 2.56, 1.76, 8.07, repro,
2004-05-14,2.33, 0.65, -4.47, 2.37, 1.64, 7.62, repro,
2004-05-15,2.75, 0.36, -13.16, 2.32, 1.64, 7.55, repro,
2004-05-16,0.78, 2.00, -3.15, 2.31, 1.64, 7.48, repro,
2004-05-17,2.05, 0.43, -1.91, 2.29, 1.63, 7.43, repro,
2004-05-18,1.14, -0.81, -3.25, 2.26, 1.64, 7.46, repro,
2004-05-19,1.57, 0.13, -5.17, 2.26, 1.64, 7.45, repro,
2004-05-20,2.01, 0.31, -0.83, 2.27, 1.65, 7.54, repro,
2004-05-21,2.66, 0.24, -5.59, 2.33, 1.63, 7.49, repro,
2004-05-22,3.54, 1.60, 2.33, 2.25, 1.61, 7.31, repro,
2004-05-23,1.75, 1.11, 1.68, 2.26, 1.62, 7.36, repro,
2004-05-24,2.51, 1.35, 4.18, 2.26, 1.61, 7.36, repro,
2004-05-25,2.61, 1.55, 4.78, 2.30, 1.67, 7.53, repro,
2004-05-26,1.14, 2.46, 11.65, 2.29, 1.64, 7.48, repro,
2004-05-27,1.86, 0.98, 12.77, 2.33, 1.67, 7.63, repro,
2004-05-28,1.85, 0.88, 8.12, 2.28, 1.64, 7.44, repro,
2004-05-29,1.82, 0.92, 3.48, 2.26, 1.62, 7.34, repro,
2004-05-30,2.11, 1.31, 5.03, 2.24, 1.61, 7.26, repro,
2004-05-31,1.30, 1.04, 12.66, 2.25, 1.60, 7.25, repro,
2004-06-01,2.50, 0.78, 8.37, 2.24, 1.61, 7.28, repro,
2004-06-02,2.39, 1.04, 1.63, 2.24, 1.62, 7.28, repro,
2004-06-03,0.99, 0.49, -3.95, 2.24, 1.62, 7.28, repro,
2004-06-04,0.95, 0.79, 1.46, 2.25, 1.62, 7.32, repro,
2004-06-05,1.06, 0.56, 4.20, 2.25, 1.60, 7.29, repro,
2004-06-06,1.15, 1.46, 4.86, 2.26, 1.62, 7.32, repro,
2004-06-07,3.50, 0.64, 6.97, 2.27, 1.63, 7.41, repro,
2004-06-08,1.26, -1.52, 10.91, 2.34, 1.69, 7.71, repro,
2004-06-09,1.21, 0.84, 5.59, 2.27, 1.63, 7.36, repro,
2004-06-10,1.45, -0.22, 2.27, 2.24, 1.61, 7.25, repro,
2004-06-11,2.25, 1.83, 6.27, 2.27, 1.61, 7.31, repro,
2004-06-12,1.48, 0.83, 7.53, 2.26, 1.62, 7.34, repro,
2004-06-13,1.67, 1.35, 8.50, 2.26, 1.62, 7.29, repro,
2004-06-14,1.94, 1.40, 5.78, 2.32, 1.67, 7.51, repro,
2004-06-15,0.77, 0.89, -2.54, 2.30, 1.66, 7.61, repro,
2004-06-16,0.98, 1.47, 0.84, 2.32, 1.66, 7.62, repro,
2004-06-17,1.82, -0.00, -1.86, 2.34, 1.64, 7.45, repro,
2004-06-18,1.57, 1.73, -3.96, 2.30, 1.67, 7.60, repro,
2004-06-19,2.46, 0.66, -1.97, 2.30, 1.67, 7.45, repro,
2004-06-20,1.35, 0.88, 7.09, 2.26, 1.60, 7.32, repro,
2004-06-21,2.33, 0.22, 14.04, 2.26, 1.61, 7.25, repro,
2004-06-22,3.94, 0.17, 7.66, 2.28, 1.62, 7.36, repro,
2004-06-23,0.01, 1.35, 3.22, 2.26, 1.61, 7.29, repro,
2004-06-24,3.41, 1.09, 2.68, 2.25, 1.60, 7.25, repro,
2004-06-25,1.74, 0.67, 3.08, 2.30, 1.66, 7.58, repro,
2004-06-26,0.83, -0.11, 5.94, 2.27, 1.61, 7.27, repro,
2004-06-27,2.13, 0.03, 3.92, 2.29, 1.61, 7.32, repro,
2004-06-28,2.36, 0.21, -1.60, 2.28, 1.61, 7.36, repro,
2004-06-29,-0.34, 1.22, 2.73, 2.34, 1.66, 7.45, repro,
2004-06-30,1.08, 1.48, 5.41, 2.37, 1.64, 7.46, repro,
2004-07-01,0.88, 0.44, -0.61, 2.30, 1.63, 7.37, repro,
2004-07-02,0.84, 0.40, -2.44, 2.30, 1.62, 7.33, repro,
2004-07-03,-0.17, 0.54, 8.97, 2.33, 1.63, 7.47, repro,
2004-07-04,2.24, 0.26, 3.62, 2.28, 1.62, 7.33, repro,
2004-07-05,1.53, 0.04, 4.24, 2.29, 1.60, 7.26, repro,
2004-07-06,0.24, 0.95, 4.85, 2.31, 1.62, 7.33, repro,
2004-07-07,1.23, -0.08, 6.27, 2.34, 1.66, 7.65, repro,
2004-07-08,0.84, 0.46, 2.87, 2.30, 1.61, 7.32, repro,
2004-07-09,0.19, -0.09, 0.53, 2.31, 1.61, 7.32, repro,
2004-07-10,-0.33, 0.27, -0.43, 2.26, 1.60, 7.23, repro,
2004-07-11,0.94, 1.54, -0.70, 2.29, 1.62, 7.33, repro,
2004-07-13,1.32, 0.49, 11.76, 2.31, 1.66, 7.59, repro,
2004-07-14,0.33, 0.93, 7.45, 2.27, 1.61, 7.33, repro,
2004-07-16,1.69, 0.60, 7.90, 2.39, 1.64, 7.46, repro,
2004-07-17,1.59, 0.12, -0.04, 2.37, 1.67, 7.55, repro,
2004-07-18,1.21, 0.18, 3.45, 2.27, 1.62, 7.39, repro,
2004-07-19,2.05, 0.48, 10.05, 2.40, 1.72, 7.87, repro,
2004-07-20,1.96, 1.19, 2.12, 2.30, 1.61, 7.32, repro,
2004-07-21,1.72, 0.65, 6.60, 2.30, 1.62, 7.34, repro,
2004-07-22,4.03, 1.20, 9.07, 2.75, 1.85, 8.43, repro,
2004-07-23,1.14, -0.55, -4.21, 2.45, 1.72, 7.95, repro,
2004-07-24,1.33, 0.87, -1.99, 2.30, 1.62, 7.36, repro,
2004-07-25,-1.64, 0.40, -0.31, 3.19, 2.11, 9.92, repro,
2004-07-26,2.05, 0.48, -4.68, 2.34, 1.64, 7.38, repro,
2004-07-27,4.13, 0.05, 3.21, 3.68, 2.70, 11.93, repro,
2004-07-28,0.40, -0.06, 0.40, 2.27, 1.60, 7.30, repro,
2004-07-29,2.15, 0.64, 0.75, 2.28, 1.63, 7.47, repro,
2004-07-30,2.57, 0.82, 1.33, 2.26, 1.64, 7.47, repro,
2004-07-31,1.76, -0.43, 4.28, 2.23, 1.58, 7.18, repro,
2004-08-01,3.85, -0.64, 6.33, 2.36, 1.71, 7.65, repro,
2004-08-02,-1.17, 0.85, 3.71, 2.34, 1.63, 7.43, repro,
2004-08-03,4.14, 0.23, 4.80, 2.30, 1.64, 7.50, repro,
2004-08-05,3.56, 0.58, -0.61, 2.29, 1.60, 7.27, repro,
2004-08-06,2.72, 1.08, 2.05, 2.29, 1.60, 7.23, repro,
2004-08-07,2.82, 0.32, 1.84, 2.31, 1.63, 7.45, repro,
2004-08-09,2.63, -0.15, -0.24, 2.28, 1.62, 7.32, repro,
2004-08-10,4.16, 0.84, -1.12, 2.28, 1.62, 7.35, repro,
2004-08-11,2.65, 0.74, 4.93, 2.23, 1.59, 7.16, repro,
2004-08-14,1.94, -0.35, 0.70, 2.34, 1.65, 7.46, repro,
2004-08-16,1.68, 0.27, 3.97, 2.35, 1.65, 7.42, repro,
2004-08-17,2.12, -0.01, 1.64, 2.26, 1.60, 7.20, repro,
2004-08-18,3.60, -0.16, 6.03, 2.29, 1.60, 7.30, repro,
2004-08-19,2.68, 0.14, 12.45, 2.26, 1.59, 7.22, repro,
2004-08-20,1.44, 0.46, 7.09, 2.28, 1.60, 7.25, repro,
2004-08-21,1.41, 1.12, 10.86, 2.28, 1.60, 7.26, repro,
2004-08-22,3.27, 1.52, 7.26, 2.28, 1.60, 7.26, repro,
2004-08-23,0.73, 0.61, 3.08, 2.26, 1.59, 7.19, repro,
2004-08-24,0.13, 1.73, 1.10, 2.28, 1.59, 7.21, repro,
2004-08-25,2.21, 1.28, 7.85, 2.33, 1.66, 7.48, repro,
2004-08-26,0.48, 1.30, 8.82, 2.35, 1.65, 7.42, repro,
2004-08-27,2.63, -0.43, 4.91, 2.31, 1.62, 7.44, repro,
2004-08-28,2.34, -0.16, -2.07, 2.36, 1.62, 7.35, repro,
2004-08-29,0.81, 0.88, -2.03, 2.43, 1.64, 7.45, repro,
2004-08-30,1.23, 1.12, -3.79, 2.81, 1.79, 8.14, repro,
2004-08-31,2.02, -0.06, -1.79, 2.46, 1.67, 7.67, repro,
2004-09-01,1.52, 0.64, -1.13, 2.35, 1.60, 7.28, repro,
2004-09-02,1.42, 2.06, 3.91, 2.37, 1.62, 7.41, repro,
2004-09-03,1.49, 1.14, 5.43, 2.37, 1.66, 7.46, repro,
2004-09-04,2.03, 1.32, 9.58, 2.43, 1.64, 7.46, repro,
2004-09-05,-0.20, 0.46, 3.45, 2.35, 1.62, 7.35, repro,
2004-09-06,-0.01, 0.74, 0.55, 2.30, 1.59, 7.28, repro,
2004-09-08,1.44, 0.64, -4.42, 2.55, 1.72, 7.81, repro,
2004-09-09,-0.52, 0.87, 0.07, 2.36, 1.61, 7.34, repro,
2004-09-10,0.02, 0.74, -2.85, 2.37, 1.65, 7.50, repro,
2004-09-12,0.58, 0.24, -1.15, 2.28, 1.59, 7.22, repro,
2004-09-13,0.83, 1.06, 1.92, 2.42, 1.72, 7.86, repro,
2004-09-15,-1.32, 1.02, 2.12, 2.43, 1.65, 7.44, repro,
2004-09-17,-0.31, 0.57, 1.84, 2.36, 1.62, 7.35, repro,
2004-09-18,0.66, 0.73, -2.03, 2.37, 1.62, 7.43, repro,
2004-09-19,-1.49, 1.39, 1.99, 2.42, 1.66, 7.61, repro,
2004-09-21,0.06, 1.09, 3.92, 2.29, 1.59, 7.23, repro,
2004-09-22,0.03, 0.90, 3.06, 2.43, 1.65, 7.45, repro,
2004-09-23,0.80, 0.79, 2.69, 2.36, 1.62, 7.37, repro,
2004-09-24,-2.49, 0.13, 11.82, 2.40, 1.62, 7.52, repro,
2004-09-25,-1.04, 0.52, 5.39, 2.30, 1.59, 7.25, repro,
2004-09-26,0.14, -0.05, 6.78, 2.27, 1.58, 7.20, repro,
2004-09-27,-0.88, -0.08, 8.87, 2.34, 1.59, 7.26, repro,
2004-09-29,-0.45, -0.44, 1.35, 2.25, 1.58, 7.20, repro,
2004-09-30,-0.52, 1.06, 4.63, 2.30, 1.59, 7.35, repro,
2004-10-01,-0.40, 1.54, 2.27, 2.28, 1.58, 7.25, repro,
2004-10-02,-0.83, -0.44, 13.09, 2.28, 1.58, 7.24, repro,
2004-10-03,1.18, 2.15, 3.27, 2.25, 1.58, 7.19, repro,
2004-10-04,1.28, 0.34, -0.19, 2.25, 1.57, 7.17, repro,
2004-10-05,-0.03, -0.10, -1.61, 2.28, 1.58, 7.23, repro,
2004-10-06,1.54, 0.61, 0.76, 2.28, 1.58, 7.22, repro,
2004-10-07,-0.30, 0.41, 0.86, 2.28, 1.58, 7.24, repro,
2004-10-08,0.09, 0.84, 2.99, 2.34, 1.60, 7.34, repro,
2004-10-09,2.13, 1.76, 2.70, 2.34, 1.60, 7.28, repro,
2004-10-10,0.61, 0.80, -1.22, 2.30, 1.60, 7.28, repro,
2004-10-13,1.84, 0.42, 3.55, 2.39, 1.66, 7.71, repro,
2004-10-14,3.07, 0.60, 5.61, 2.26, 1.58, 7.17, repro,
2004-10-15,2.99, 0.01, 11.60, 2.31, 1.62, 7.38, repro,
2004-10-16,1.59, -0.22, 10.84, 2.28, 1.59, 7.26, repro,
2004-10-17,2.70, 0.19, 9.20, 2.30, 1.59, 7.29, repro,
2004-10-19,1.68, 1.30, 0.51, 2.31, 1.62, 7.34, repro,
2004-10-20,2.40, 1.69, 6.24, 2.40, 1.66, 7.56, repro,
2004-10-25,1.08, 1.66, 4.71, 2.30, 1.63, 7.34, repro,
2004-10-26,2.14, 1.33, -4.12, 2.40, 1.76, 7.94, repro,
2004-10-27,2.67, 0.83, -7.44, 2.33, 1.62, 7.42, repro,
2004-10-28,0.01, 0.68, 0.80, 2.30, 1.62, 7.40, repro,
2004-10-29,0.64, 0.83, 6.89, 2.27, 1.57, 7.15, repro,
2004-10-30,2.86, 0.24, 17.37, 2.36, 1.63, 7.48, repro,
2004-10-31,2.78, 0.34, 12.59, 2.26, 1.57, 7.15, repro,
2004-11-01,2.07, 1.10, 0.70, 2.38, 1.67, 7.56, repro,
2004-11-02,2.44, 0.19, 2.90, 2.34, 1.63, 7.45, repro,
2004-11-03,2.43, 0.07, 0.66, 2.32, 1.61, 7.33, repro,
2004-11-04,2.00, 1.29, 4.14, 2.33, 1.60, 7.34, repro,
2004-11-05,2.55, 0.75, 12.80, 2.39, 1.65, 7.44, repro,
2004-11-06,2.55, 0.89, 12.62, 2.56, 1.77, 8.02, repro,
2004-11-07,2.44, 0.17, 6.12, 2.54, 1.73, 7.87, repro,
2004-11-08,3.40, -2.08, -5.75, 3.09, 2.29, 10.57, repro,
2004-11-09,1.46, -0.16, -2.04, 2.77, 1.88, 8.82, repro,
2004-11-10,0.20, -0.13, -5.43, 3.17, 2.26, 10.66, repro,
2004-11-11,2.75, -0.47, -5.89, 2.37, 1.62, 7.47, repro,
2004-11-12,2.66, 0.03, -12.98, 2.40, 1.66, 7.59, repro,
2004-11-13,1.29, 0.69, -10.44, 2.33, 1.60, 7.35, repro,
2004-11-19,2.16, 1.44, 0.63, 2.42, 1.69, 7.58, repro,
2004-11-20,1.91, 0.77, 3.13, 2.35, 1.63, 7.44, repro,
2004-11-21,2.64, 1.38, 0.51, 2.36, 1.65, 7.51, repro,
2004-11-22,1.82, 0.59, -3.35, 2.37, 1.65, 7.50, repro,
2004-11-23,1.54, 1.60, 6.72, 2.28, 1.60, 7.44, repro,
2004-11-24,1.46, 0.94, 4.07, 2.64, 1.81, 8.16, repro,
2004-11-25,2.67, 0.63, 5.66, 2.47, 1.74, 7.83, repro,
2004-11-26,2.27, 1.06, -2.02, 2.52, 1.75, 8.07, repro,
2004-11-27,2.66, 1.83, 0.41, 2.51, 1.75, 7.82, repro,
2004-11-28,2.50, 0.24, 4.64, 2.35, 1.64, 7.42, repro,
2004-11-29,0.29, 0.57, -0.76, 2.32, 1.58, 7.22, repro,
2004-11-30,0.64, 0.19, 3.23, 2.27, 1.55, 7.05, repro,
2004-12-01,1.58, 0.15, 3.42, 2.34, 1.64, 7.47, repro,
2004-12-02,2.06, -0.14, 0.71, 2.29, 1.60, 7.34, repro,
2004-12-03,1.13, 0.63, 4.46, 2.31, 1.61, 7.35, repro,
2004-12-04,2.33, 0.95, 6.72, 2.30, 1.61, 7.35, repro,
2004-12-05,1.20, 0.02, 3.71, 2.31, 1.58, 7.13, repro,
2004-12-06,2.48, 1.40, -1.83, 2.41, 1.68, 7.47, repro,
2004-12-07,2.53, 1.85, 6.20, 2.52, 1.74, 7.92, repro,
2004-12-08,1.87, 0.00, 5.48, 2.40, 1.65, 7.57, repro,
2004-12-09,-0.27, 1.99, 4.02, 2.44, 1.64, 7.66, repro,
2004-12-10,2.61, 0.93, -2.06, 2.41, 1.66, 7.53, repro,
2004-12-11,1.75, 0.57, 4.89, 2.39, 1.68, 7.70, repro,
2004-12-12,2.06, 0.73, 8.10, 2.35, 1.65, 7.48, repro,
2004-12-13,1.32, 0.46, 2.75, 2.35, 1.61, 7.33, repro,
2004-12-14,2.57, 0.60, -6.50, 2.54, 1.82, 8.34, repro,
2004-12-15,-0.69, 1.25, -2.45, 2.39, 1.66, 7.69, repro,
2004-12-16,-0.07, 0.69, 0.70, 2.34, 1.60, 7.29, repro,
2004-12-17,0.24, 0.63, -6.37, 2.33, 1.57, 7.25, repro,
2004-12-18,0.87, 0.77, 3.68, 2.47, 1.63, 7.49, repro,
2004-12-19,0.78, 1.04, -3.51, 2.35, 1.60, 7.38, repro,
2004-12-20,0.75, 1.98, 2.91, 2.36, 1.61, 7.46, repro,
2004-12-21,1.54, 1.09, 7.23, 2.34, 1.62, 7.45, repro,
2004-12-22,1.19, -0.11, -3.35, 2.35, 1.63, 7.47, repro,
2004-12-23,0.98, -0.10, -7.00, 2.30, 1.58, 7.28, repro,
2004-12-24,-0.14, 0.30, -0.06, 2.42, 1.63, 7.58, repro,
2004-12-25,0.27, 0.88, -7.98, 2.35, 1.62, 7.44, repro,
2004-12-26,0.32, 1.01, -7.77, 2.33, 1.62, 7.50, repro,
2004-12-27,-1.94, 0.33, -6.39, 2.42, 1.66, 7.77, repro,
2004-12-28,-1.37, 0.26, 2.74, 2.40, 1.68, 7.83, repro,
2004-12-29,1.72, 1.06, -1.66, 2.42, 1.67, 7.86, repro,
2004-12-30,1.17, 2.87, -2.44, 2.42, 1.69, 7.82, repro,
2004-12-31,1.94, 1.27, 1.07, 2.45, 1.70, 7.79, repro,
2005-01-01,2.32, 0.91, -8.94, 2.39, 1.66, 7.55, repro,
2005-01-02,0.61, 2.51, -12.41, 2.52, 1.75, 8.05, repro,
2005-01-03,2.30, 1.96, -13.51, 2.36, 1.65, 7.63, repro,
2005-01-04,2.81, 2.90, -10.03, 2.39, 1.67, 7.61, repro,
2005-01-05,2.30, 1.68, -7.66, 2.44, 1.72, 7.82, repro,
2005-01-06,1.58, 1.24, 1.12, 2.56, 1.76, 8.16, repro,
2005-01-07,0.82, 1.28, 2.18, 2.57, 1.79, 8.34, repro,
2005-01-08,1.46, 1.60, -4.89, 2.48, 1.71, 7.75, repro,
2005-01-09,0.91, 2.01, -11.93, 2.36, 1.62, 7.36, repro,
2005-01-10,1.84, 1.35, -0.59, 2.54, 1.78, 7.95, repro,
2005-01-11,3.82, 1.10, -4.87, 2.46, 1.71, 7.72, repro,
2005-01-12,2.90, 1.89, -4.32, 2.45, 1.68, 7.64, repro,
2005-01-13,4.31, 1.79, 5.75, 2.37, 1.66, 7.50, repro,
2005-01-14,2.22, 0.95, -7.84, 2.44, 1.74, 7.91, repro,
2005-01-15,1.37, 1.14, -17.01, 2.44, 1.65, 7.48, repro,
2005-01-16,1.60, 1.81, -23.21, 2.45, 1.70, 7.69, repro,
2005-01-17,2.60, 1.22, -22.61, 2.39, 1.65, 7.50, repro,
2005-01-18,1.64, 2.15, -10.13, 2.52, 1.74, 8.14, repro,
2005-01-19,0.95, 0.24, -4.21, 2.51, 1.78, 8.16, repro,
2005-01-20,2.41, 1.59, -10.07, 2.42, 1.66, 7.52, repro,
2005-01-21,2.24, 1.15, -9.21, 2.56, 1.74, 8.07, repro,
2005-01-22,3.37, 2.07, -7.17, 2.39, 1.66, 7.61, repro,
2005-01-23,0.92, 1.36, -6.90, 2.34, 1.62, 7.39, repro,
2005-01-24,1.16, 1.50, 2.35, 2.41, 1.67, 7.53, repro,
2005-01-25,3.01, 1.31, -1.64, 2.43, 1.65, 7.50, repro,
2005-01-26,2.57, 1.50, -4.66, 2.37, 1.67, 7.49, repro,
2005-01-27,1.60, 2.30, -8.61, 2.35, 1.63, 7.36, repro,
2005-01-28,1.15, 2.15, -10.70, 2.42, 1.66, 7.51, repro,
2005-01-29,1.93, 1.62, -4.02, 2.25, 1.58, 7.22, repro,
2005-01-30,2.37, 1.41, -5.70, 2.24, 1.57, 7.19, repro,
2005-01-31,1.37, 0.75, -7.35, 2.28, 1.60, 7.28, repro,
2005-02-01,1.74, 0.98, -7.03, 2.24, 1.57, 7.15, repro,
2005-02-02,0.24, 1.48, -7.24, 2.25, 1.56, 7.14, repro,
2005-02-03,2.47, 1.12, -1.20, 2.26, 1.61, 7.32, repro,
2005-02-04,1.48, 1.26, -8.30, 2.23, 1.57, 7.12, repro,
2005-02-05,2.55, 0.65, -7.52, 2.24, 1.56, 7.14, repro,
2005-02-06,1.08, 1.31, -5.76, 2.26, 1.56, 7.19, repro,
2005-02-07,4.05, 1.00, -11.02, 2.33, 1.61, 7.31, repro,
2005-02-08,3.21, 1.69, -4.41, 2.38, 1.64, 7.46, repro,
2005-02-09,3.16, 0.62, -5.35, 2.30, 1.60, 7.33, repro,
2005-02-10,3.00, 1.69, -3.40, 2.23, 1.57, 7.20, repro,
2005-02-11,1.19, 1.19, 3.24, 2.24, 1.57, 7.15, repro,
2005-02-12,3.27, 0.48, 5.00, 2.25, 1.56, 7.16, repro,
2005-02-13,3.75, 1.77, -2.43, 2.31, 1.60, 7.32, repro,
2005-02-14,1.72, 1.90, 5.80, 2.25, 1.58, 7.18, repro,
2005-02-15,2.06, 1.57, 7.17, 2.23, 1.57, 7.19, repro,
2005-02-16,2.20, 0.86, -0.66, 2.23, 1.57, 7.16, repro,
2005-02-17,2.29, 0.80, -0.62, 2.27, 1.60, 7.39, repro,
2005-02-18,1.80, 1.33, -3.85, 2.39, 1.71, 8.07, repro,
2005-02-19,1.91, 1.44, -2.63, 2.25, 1.58, 7.18, repro,
2005-02-20,2.18, 1.78, -6.23, 2.24, 1.59, 7.23, repro,
2005-02-21,2.00, 1.77, -1.17, 2.35, 1.65, 7.55, repro,
2005-02-22,2.31, 1.15, -7.04, 2.29, 1.61, 7.36, repro,
2005-02-23,2.77, 1.31, -7.74, 2.31, 1.64, 7.49, repro,
2005-02-24,3.36, 1.34, -8.43, 2.34, 1.69, 7.73, repro,
2005-02-25,2.79, 1.59, -3.31, 2.26, 1.60, 7.34, repro,
2005-02-26,2.98, 1.26, -6.63, 2.24, 1.61, 7.30, repro,
2005-02-27,2.83, 1.55, -2.95, 2.24, 1.60, 7.29, repro,
2005-02-28,3.32, 1.69, 0.58, 2.29, 1.63, 7.54, repro,
2005-03-01,2.78, 1.56, 0.88, 2.36, 1.72, 7.80, repro,
2005-03-02,1.64, 1.14, 0.89, 2.29, 1.64, 7.59, repro,
2005-03-03,1.44, 0.94, -0.13, 2.31, 1.67, 7.65, repro,
2005-03-04,1.68, 1.28, 6.02, 2.24, 1.61, 7.30, repro,
2005-03-05,1.85, 1.01, -1.39, 2.31, 1.68, 7.56, repro,
2005-03-06,2.53, 1.28, 6.03, 2.36, 1.73, 7.92, repro,
2005-03-07,2.13, 1.44, 7.03, 2.32, 1.65, 7.63, repro,
2005-03-08,2.85, 1.38, 1.41, 2.29, 1.63, 7.48, repro,
2005-03-09,1.07, 0.80, 1.34, 2.35, 1.69, 7.78, repro,
2005-03-10,2.36, 1.40, 7.85, 2.23, 1.61, 7.23, repro,
2005-03-11,2.38, 2.01, 10.17, 2.31, 1.70, 7.69, repro,
2005-03-12,2.83, 0.81, 14.13, 2.28, 1.65, 7.56, repro,
2005-03-13,2.83, 1.19, 1.66, 2.28, 1.65, 7.58, repro,
2005-03-14,1.94, 1.46, -2.13, 2.26, 1.62, 7.35, repro,
2005-03-15,1.44, 1.18, -5.73, 2.31, 1.68, 7.64, repro,
2005-03-16,1.18, 0.88, -4.27, 2.29, 1.61, 7.35, repro,
2005-03-17,1.47, 1.19, -1.77, 2.25, 1.62, 7.35, repro,
2005-03-18,2.54, 1.15, -5.59, 2.25, 1.61, 7.34, repro,
2005-03-19,2.14, 1.68, -7.23, 2.25, 1.61, 7.34, repro,
2005-03-20,2.55, 1.32, -8.90, 2.23, 1.62, 7.29, repro,
2005-03-21,2.62, 1.44, -11.72, 2.22, 1.60, 7.23, repro,
2005-03-22,2.33, 0.56, -7.35, 2.23, 1.60, 7.27, repro,
2005-03-23,0.85, 1.26, -2.08, 2.23, 1.60, 7.30, repro,
2005-03-24,0.55, 1.47, -0.36, 2.36, 1.66, 7.62, repro,
2005-03-25,1.30, 1.25, -3.50, 2.25, 1.60, 7.32, repro,
2005-03-26,1.50, 1.74, -0.85, 2.23, 1.60, 7.28, repro,
2005-03-27,1.84, 2.13, -0.04, 2.21, 1.61, 7.24, repro,
2005-03-28,0.71, 2.55, 4.25, 2.22, 1.60, 7.24, repro,
2005-03-29,1.56, 2.93, 3.59, 2.31, 1.64, 7.39, repro,
2005-03-30,-0.66, 2.62, 7.22, 2.23, 1.61, 7.29, repro,
2005-03-31,1.77, 1.44, 4.87, 2.30, 1.64, 7.47, repro,
2005-04-01,1.93, 0.87, -0.33, 2.23, 1.60, 7.29, repro,
2005-04-02,1.22, 1.54, -0.74, 2.21, 1.59, 7.22, repro,
2005-04-03,0.86, 1.07, -1.80, 2.25, 1.65, 7.43, repro,
2005-04-04,0.80, 0.88, 0.95, 2.44, 1.86, 8.17, repro,
2005-04-05,1.92, 1.57, -4.42, 2.36, 1.71, 8.00, repro,
2005-04-06,1.32, 0.82, -4.99, 2.25, 1.62, 7.38, repro,